TimeCDT,TemperatureF,Dew PointF,Humidity,Sea Level PressureIn,VisibilityMPH,Wind Direction,Wind SpeedMPH,Gust SpeedMPH,PrecipitationIn,Events,Conditions,WindDirDegrees,DateUTC
12:15 AM,79.7,66.2,63,30.02,10.0,West,3.5,-,N/A,,Clear,260,2013-08-29 05:15:00
12:35 AM,78.8,66.2,65,30.02,10.0,West,4.6,-,N/A,,Clear,260,2013-08-29 05:35:00
12:55 AM,79.5,66.0,63,30.02,10.0,West,3.5,-,N/A,,Clear,270,2013-08-29 05:55:00
1:15 AM,79.2,65.8,64,30.02,10.0,West,3.5,-,N/A,,Clear,260,2013-08-29 06:15:00
1:35 AM,78.1,65.8,66,30.02,10.0,Calm,Calm,-,N/A,,Clear,0,2013-08-29 06:35:00
1:55 AM,78.4,65.5,64,30.02,10.0,West,3.5,-,N/A,,Clear,270,2013-08-29 06:55:00
2:15 AM,77.4,65.7,67,30.02,10.0,West,3.5,-,N/A,,Clear,260,2013-08-29 07:15:00
2:35 AM,77.5,65.5,66,30.02,10.0,Calm,Calm,-,N/A,,Clear,0,2013-08-29 07:35:00
2:55 AM,78.1,65.3,65,30.03,10.0,Calm,Calm,-,N/A,,Clear,0,2013-08-29 07:55:00
3:15 AM,78.3,64.9,63,30.03,10.0,Calm,Calm,-,N/A,,Clear,0,2013-08-29 08:15:00
3:35 AM,73.2,66.2,79,30.03,10.0,Calm,Calm,-,N/A,,Clear,0,2013-08-29 08:35:00
3:55 AM,72.5,66.2,81,30.03,10.0,Calm,Calm,-,N/A,,Clear,0,2013-08-29 08:55:00
4:15 AM,72.7,66.2,80,30.03,10.0,Calm,Calm,-,N/A,,Clear,0,2013-08-29 09:15:00
4:35 AM,71.6,66.2,83,30.03,10.0,Calm,Calm,-,N/A,,Clear,0,2013-08-29 09:35:00
4:55 AM,71.1,66.0,84,30.03,10.0,Calm,Calm,-,N/A,,Clear,0,2013-08-29 09:55:00
5:15 AM,70.9,66.2,85,30.04,10.0,Calm,Calm,-,N/A,,Clear,0,2013-08-29 10:15:00
5:35 AM,70.7,66.0,85,30.03,10.0,Calm,Calm,-,N/A,,Clear,0,2013-08-29 10:35:00
5:55 AM,69.6,65.7,87,30.04,10.0,Calm,Calm,-,N/A,,Clear,0,2013-08-29 10:55:00
6:15 AM,69.4,66.0,89,30.04,5.0,Calm,Calm,-,N/A,,Clear,0,2013-08-29 11:15:00
6:35 AM,70.7,66.0,85,30.05,10.0,WSW,3.5,-,N/A,,Clear,240,2013-08-29 11:35:00
6:55 AM,69.4,65.7,88,30.05,10.0,Calm,Calm,-,N/A,,Clear,0,2013-08-29 11:55:00
7:15 AM,73.0,66.2,79,30.05,10.0,West,3.5,-,N/A,,Clear,260,2013-08-29 12:15:00
7:35 AM,74.8,66.2,74,30.05,10.0,West,4.6,-,N/A,,Clear,260,2013-08-29 12:35:00
7:55 AM,76.5,66.7,72,30.06,10.0,West,4.6,-,N/A,,Clear,260,2013-08-29 12:55:00
8:15 AM,78.4,67.6,69,30.05,10.0,West,4.6,-,N/A,,Clear,280,2013-08-29 13:15:00
8:35 AM,79.7,68.0,67,30.05,10.0,WNW,3.5,-,N/A,,Clear,290,2013-08-29 13:35:00
8:55 AM,80.6,68.4,66,30.06,10.0,NW,4.6,-,N/A,,Clear,310,2013-08-29 13:55:00
9:15 AM,81.7,68.4,64,30.06,10.0,NW,3.5,-,N/A,,Clear,310,2013-08-29 14:15:00
9:35 AM,83.1,69.1,62,30.07,10.0,WNW,4.6,-,N/A,,Clear,300,2013-08-29 14:35:00
10:15 AM,83.3,70.2,64,30.07,10.0,Calm,Calm,-,N/A,,Clear,0,2013-08-29 15:15:00
10:35 AM,85.8,70.5,60,30.07,10.0,NW,4.6,-,N/A,,Clear,310,2013-08-29 15:35:00
10:55 AM,87.6,69.8,55,30.07,10.0,NW,6.9,-,N/A,,Clear,310,2013-08-29 15:55:00
11:15 AM,88.2,69.8,54,30.06,10.0,NW,8.1,-,N/A,,Clear,320,2013-08-29 16:15:00
11:35 AM,89.8,69.8,52,30.06,10.0,NW,5.8,-,N/A,,Clear,310,2013-08-29 16:35:00
11:55 AM,90.3,69.6,50,30.06,10.0,NW,5.8,-,N/A,,Clear,310,2013-08-29 16:55:00
12:15 PM,91.2,70.3,50,30.06,10.0,NNW,4.6,-,N/A,,Clear,340,2013-08-29 17:15:00
12:35 PM,92.5,68.4,45,30.05,10.0,WNW,6.9,-,N/A,,Clear,290,2013-08-29 17:35:00
12:55 PM,92.1,68.9,46,30.05,10.0,North,4.6,-,N/A,,Clear,10,2013-08-29 17:55:00
1:15 PM,92.7,68.4,45,30.04,10.0,NE,5.8,-,N/A,,Clear,40,2013-08-29 18:15:00
1:35 PM,92.7,68.2,45,30.04,10.0,NNE,6.9,-,N/A,,Clear,30,2013-08-29 18:35:00
1:55 PM,93.2,68.5,44,30.03,10.0,NNE,4.6,-,N/A,,Clear,20,2013-08-29 18:55:00
2:15 PM,93.9,70.2,46,30.03,10.0,North,4.6,-,N/A,,Clear,10,2013-08-29 19:15:00
2:35 PM,94.3,70.2,45,30.02,10.0,East,4.6,-,N/A,,Clear,80,2013-08-29 19:35:00
2:55 PM,94.1,68.2,43,30.02,10.0,Calm,Calm,-,N/A,,Clear,0,2013-08-29 19:55:00
3:15 PM,93.4,69.4,45,30.01,10.0,ESE,4.6,-,N/A,,Clear,110,2013-08-29 20:15:00
3:35 PM,93.9,69.8,45,30.01,10.0,ENE,3.5,-,N/A,,Clear,70,2013-08-29 20:35:00
3:55 PM,93.9,70.5,46,30.00,10.0,NE,4.6,-,N/A,,Clear,40,2013-08-29 20:55:00
4:15 PM,93.6,70.3,47,30.00,10.0,East,5.8,-,N/A,,Clear,80,2013-08-29 21:15:00
4:35 PM,93.7,70.0,46,30.00,10.0,East,6.9,-,N/A,,Clear,80,2013-08-29 21:35:00
4:55 PM,93.2,70.0,47,29.99,10.0,ENE,5.8,-,N/A,,Clear,70,2013-08-29 21:55:00
5:15 PM,93.2,72.0,50,29.99,10.0,ENE,4.6,-,N/A,,Clear,70,2013-08-29 22:15:00
5:35 PM,92.5,72.7,52,29.99,10.0,East,3.5,-,N/A,,Clear,90,2013-08-29 22:35:00
5:55 PM,91.2,72.9,55,29.99,10.0,East,4.6,-,N/A,,Clear,80,2013-08-29 22:55:00
6:15 PM,90.9,73.8,57,29.99,10.0,East,4.6,-,N/A,,Clear,80,2013-08-29 23:15:00
6:35 PM,89.6,73.8,59,29.99,10.0,East,3.5,-,N/A,,Clear,80,2013-08-29 23:35:00
6:55 PM,87.3,74.7,66,29.99,10.0,East,3.5,-,N/A,,Clear,90,2013-08-29 23:55:00
7:15 PM,86.4,75.2,69,29.99,10.0,East,4.6,-,N/A,,Clear,80,2013-08-30 00:15:00
7:35 PM,85.3,76.1,74,29.99,10.0,East,4.6,-,N/A,,Clear,80,2013-08-30 00:35:00
7:55 PM,84.0,76.1,77,29.99,10.0,ENE,4.6,-,N/A,,Clear,70,2013-08-30 00:55:00
8:15 PM,83.7,76.1,78,30.00,10.0,East,4.6,-,N/A,,Scattered Clouds,80,2013-08-30 01:15:00
8:55 PM,82.4,75.6,80,30.00,7.0,East,3.5,-,N/A,,Clear,90,2013-08-30 01:55:00
9:15 PM,81.9,75.4,81,30.01,7.0,East,4.6,-,N/A,,Clear,100,2013-08-30 02:15:00
9:35 PM,81.1,75.4,83,30.00,7.0,ENE,3.5,-,N/A,,Clear,70,2013-08-30 02:35:00
9:55 PM,80.2,75.2,85,30.00,7.0,East,3.5,-,N/A,,Clear,100,2013-08-30 02:55:00
10:15 PM,79.2,75.2,88,30.00,5.0,East,4.6,-,N/A,,Clear,100,2013-08-30 03:15:00
10:35 PM,77.7,74.1,89,29.99,5.0,Calm,Calm,-,N/A,,Clear,0,2013-08-30 03:35:00
10:55 PM,77.9,74.3,89,29.99,5.0,Calm,Calm,-,N/A,,Clear,0,2013-08-30 03:55:00
11:15 PM,77.9,74.5,89,29.99,5.0,Calm,Calm,-,N/A,,Clear,0,2013-08-30 04:15:00
11:35 PM,77.7,74.5,90,29.99,5.0,ESE,3.5,-,N/A,,Clear,120,2013-08-30 04:35:00
11:55 PM,76.6,74.1,92,29.99,3.0,SSE,3.5,-,N/A,,Clear,160,2013-08-30 04:55:00